Simultaneous Nadir Overpasses (SNOs) Predictions

Prediction of SNOs between GOES-14 and NPP Satellite Orbit:

Table of predicted SNOs for the next 14.0 days since TLE Epoch: 4/20/2024
Index Date Time (GOES-14) GOES-14 Lat,Lon NPP Lat,Lon Distance(km) Time Diff (sec)
1 04/20/2024 08:24:57 0.18,-108.58 -0.52,-105.36 365.77 80
2 04/21/2024 20:46:54 -0.18,-108.60 -0.62,-110.68 236.99 80
3 04/22/2024 20:30:49 -0.18,-108.60 0.35,-106.14 280.20 80
4 04/24/2024 08:52:36 0.17,-108.60 0.82,-111.41 320.91 80
5 04/25/2024 08:31:12 0.18,-108.60 -0.22,-106.88 195.61 80
6 04/26/2024 20:53:08 -0.16,-108.60 -0.96,-112.19 408.62 80
7 04/27/2024 20:37:03 -0.17,-108.61 0.03,-107.65 108.13 80
8 04/29/2024 08:58:50 0.16,-108.60 1.13,-112.93 492.89 80
9 04/30/2024 08:37:24 0.17,-108.60 0.14,-108.39 23.35 80
10 05/02/2024 20:40:35 -0.17,-108.59 -0.29,-109.17 65.18 80
11 05/03/2024 20:24:30 -0.18,-108.59 0.72,-104.63 451.73 80
